This demonstration page uses our WeatherBlox Daily Observations layout. Learn more.

Left ArrowRight Arrow

Hourly Observations for June 18, 2017

Temp ( °F °C ) Dew Point ( °F °C ) Humidity (%) Winds ( mph kmh ) Pressure ( in mb ) Visibility ( mi km ) Precip ( " mm )
12:53 am 00:53 Clear 49 9.4 46 7.8 90 90 SW 3 6 29.95 1014 10 16 0.00 0.00
1:53 am 01:53 Clear 48 8.9 44 6.7 86 86 SW 5 7 29.94 1014 10 16 0.00 0.00
2:53 am 02:53 Clear 47 8.3 44 6.7 90 90 WSW 3 6 29.94 1014 10 16 0.00 0.00
3:53 am 03:53 Clear 51 10.6 45 7.2 80 80 SW 14 22 29.95 1014 10 16 0.00 0.00
4:53 am 04:53 Clear 51 10.6 44 6.7 77 77 SW 6 9 29.95 1014 10 16 0.00 0.00
5:53 am 05:53 Mostly Cloudy 52 11.1 46 7.8 80 80 SW 8 13 29.95 1014 10 16 0.00 0.00
6:53 am 06:53 Mostly Sunny 56 13.3 45 7.2 67 67 SW 8 13 29.95 1014 10 16 0.00 0.00
7:53 am 07:53 Mostly Cloudy 59 15 45 7.2 60 60 WSW 9 15 29.95 1014 10 16 0.00 0.00
8:53 am 08:53 Sunny 63 17.2 43 6.1 48 48 W 12 19 29.95 1014 10 16 0.00 0.00
9:53 am 09:53 Sunny 69 20.6 37 2.8 31 31 WNW 15 24 29.93 1014 10 16 0.00 0.00
10:53 am 10:53 Sunny 71 21.7 35 1.7 27 27 WNW 14 22 29.93 1014 10 16 0.00 0.00
11:53 am 11:53 Sunny 73 22.8 37 2.8 27 27 W 17 28 29.93 1014 10 16 0.00 0.00
12:53 pm 12:53 Mostly Sunny 74 23.3 35 1.7 24 24 W 16 26 29.93 1013 10 16 0.00 0.00
1:53 pm 13:53 Mostly Cloudy 76 24.4 36 2.2 23 23 W 18 30 29.92 1013 10 16 0.00 0.00
2:53 pm 14:53 Mostly Cloudy 75 23.9 37 2.8 25 25 WNW 21 33 29.93 1013 10 16 0.00 0.00
3:53 pm 15:53 Cloudy 75 23.9 37 2.8 25 25 WNW 14 22 29.92 1013 10 16 0.00 0.00
4:53 pm 16:53 Mostly Cloudy 77 25 37 2.8 24 24 W 20 31 29.92 1013 10 16 0.00 0.00
5:53 pm 17:53 Mostly Cloudy 74 23.3 38 3.3 27 27 W 14 22 29.93 1014 10 16 0.00 0.00
6:53 pm 18:53 Cloudy 73 22.8 39 3.9 29 29 NW 10 17 29.93 1014 10 16 0.00 0.00
7:53 pm 19:53 Mostly Cloudy 71 21.7 41 5 34 34 WNW 15 24 29.95 1014 10 16 0.00 0.00
8:53 pm 20:53 Cloudy 68 20 42 5.6 39 39 W 10 17 29.96 1015 10 16 0.00 0.00
11:53 pm 23:53 Clear 54 12.2 46 7.8 75 75 WSW 5 7 30.01 1016 10 16 0.00 0.00

Powered by AerisWeather